METEOR 2-5 DEB, 40215

Orbit data source: Space-Track

METEOR 2-5 DEB, 40215 is space debris in LEO originally from a launch on Wed, 31 Oct 1979 UTC launched from the Plesetsk Missile And Space Complex (PKMTR). Debris objects in space refer to the collection of defunct objects orbiting the Earth. Examples of debris include non-operational satellites, rocket bodies, and fragments generated from explosions, collisions, or faulty payload assembly.

Loading next visibility...
Identifier
40215, 1979-095CN
Orbit
LEO
Country
Flag of CISCIS
Related business
Manufacturer
Unknown
Mission
Spacecraft
Bus & Motor
Unknown
Mass
Unknown
Launch date (UTC)
1979-10-31 (47 years ago)
Launch vehicle
Unknown
Launch site
Plesetsk Missile And Space Complex (PKMTR)
Object type
Payload
Rocket body
Debris
Shape & HBR
Unknown shape, 0.1 m
Radar Cross Section
Small (<0.1 m²)

Expand to show TLE details & history
Last TLE update: 5 days ago

TLE from 5 days ago
0 METEOR 2-5 DEB
1 40215U 79095CN  26119.49603640  .00004654  00000-0  15546-2 0  9995
2 40215  81.1885 202.6971 0008464 219.6221 140.4347 14.37348096 20692
Epoch: 2026-04-29T11:54Z
TLE epoch observation values (Epoch: 2026-04-29T11:54:17.544Z)
Latitude
-0.00006°
Longitude
166.66783°
Altitude
774.874 km
Speed
7.464 km/s
True Right ascension
13h 30m 47s
True Declination
0° 00' 00"
Sunlit
Object was in full shadow at epoch
Visualization orbit readout
Latitude
Unknown
Longitude
Unknown
Altitude
Unknown
Speed
Unknown
Apparent Right ascension
Unknown
Apparent Declination
Unknown
Sunlit
N/A
Visualization observer readout
Local Sidereal Time
08:33:37
Azimuth
Unknown
Elevation
Unknown
Doppler factor
Unknown
Orbital elements
Apogee altitude
770.46 km
Perigee altitude
758.369 km
Semi-major axis
7,142.551 km
Eccentricity
0.00085
Inclination
81.1885°
RAAN
202.6971°
Arg. of periapsis
219.6221°
True anomaly
140.49643°
Mean anomaly
140.4347°
Eccentric anomaly
140.46557°
Mean motion
3.59553 °/min
Orbital period
100.12 mins
BSTAR
0.0015546
Loading maneuver chart data...
Computing Atmospheric mass density...

Documentation

Showing up to 5 results
|